Temperature
19 19 19 19 19 19 19 19 19 19 19 19 19 19 19 19 19 19 18 18 18 18 18 18 18 18 17 17 17 17 17 17 17 17 17 16 16 16 16 16 16 16 16
19 19 19 19 19 19 19 19 19 19 19 19 19 19 19 19 18 18 18 18 18 18 18 18 18 18 17 17 17 17 17 17 17 17 16 16 16 16 16 16 16 16 16
19 19 19 19 19 19 19 19 19 19 19 19 19 19 19 18 18 18 18 18 18 18 18 18 18 17 17 17 17 17 17 17 17 17 16 16 16 16 16 16 16 16 16
19 19 19 19 19 19 19 19 19 19 19 19 19 19 19 18 18 18 18 18 18 18 18 18 18 17 17 17 17 17 17 17 17 17 16 16 16 16 16 16 16 16 16
19 19 19 19 19 19 19 19 19 19 19 19 19 19 19 19 18 18 18 18 18 18 18 18 18 17 17 17 17 17 17 17 17 16 16 16 16 16 16 16 16 16 16
19 19 19 19 19 19 19 19 19 19 19 19 19 19 19 19 19 19 18 18 18 18 18 17 17 17 17 17 17 17 17 17 16 16 16 16 16 16 16 16 15 15 15
19 19 19 19 19 19 19 19 19 19 19 19 19 19 19 19 19 19 19 18 18 18 18 18 17 17 17 17 17 17 17 16 16 16 16 16 16 16 16 16 16 15 15
19 19 19 19 19 19 19 19 19 19 19 19 19 19 19 19 19 19 19 19 18 18 18 18 17 17 17 17 17 17 16 16 16 16 16 16 16 16 16 16 16 15 15
19 19 19 19 19 19 19 19 19 19 19 19 19 19 19 19 19 19 19 19 19 18 18 18 17 17 17 17 17 17 17 16 16 16 16 16 16 16 16 16 15 15 15
19 19 19 19 19 19 19 19 19 19 19 19 19 19 19 19 19 19 19 19 19 18 18 18 17 17 17 17 17 17 17 17 16 16 16 16 16 16 16 15 15 15 15
19 19 19 19 19 19 19 19 19 19 19 19 19 19 19 19 19 19 19 19 19 18 18 18 17 17 17 17 17 17 17 17 16 16 16 16 16 16 16 15 15 15 15
19 19 19 19 19 19 19 19 19 19 19 19 19 19 19 19 19 19 19 19 19 18 18 18 18 17 17 17 17 17 17 17 16 16 16 16 16 16 15 15 15 15 15
19 20 19 19 19 19 19 19 19 19 19 19 19 19 19 19 19 19 19 19 18 18 18 18 18 17 17 17 17 17 16 16 16 16 16 16 16 16 15 15 15 15 15
20 20 20 20 19 19 19 19 19 19 19 19 19 19 19 19 19 19 19 19 18 18 18 18 18 17 17 17 17 16 16 16 16 16 16 16 16 15 15 15 15 15 15
20 20 20 20 19 19 19 19 19 19 19 19 19 19 19 19 19 19 19 18 18 18 18 18 18 17 17 17 17 16 16 16 16 16 16 16 15 15 15 15 15 15 15
20 20 20 20 19 19 19 19 19 19 19 19 19 19 19 19 18 19 18 18 18 18 18 18 17 17 17 17 16 16 16 16 16 16 16 15 15 15 15 15 15 15 14
20 20 20 20 20 19 19 19 19 19 19 19 18 18 19 19 18 18 18 18 18 18 17 17 17 17 17 17 16 16 16 16 16 16 16 15 15 15 15 15 15 15 14
20 20 20 20 20 19 19 19 19 19 18 18 18 18 18 18 18 18 18 18 18 17 17 17 17 17 17 16 16 16 16 15 15 15 15 15 15 15 15 15 15 15 14
20 20 20 20 19 19 19 19 19 19 18 18 18 18 18 18 17 17 17 17 17 17 17 17 16 16 16 16 16 16 15 15 15 15 15 15 15 15 15 14 14 14 14
20 20 20 20 19 19 19 19 19 19 18 18 18 18 18 17 17 17 17 17 17 17 16 16 16 16 16 16 15 15 15 15 15 15 15 15 15 15 14 14 14 14 14
20 20 20 20 19 19 19 19 19 18 18 18 18 17 17 17 17 17 17 16 16 16 16 16 16 15 15 15 15 15 15 15 15 15 15 15 14 14 14 14 14 14 14
20 19 19 19 19 19 19 19 19 18 18 18 17 17 17 17 17 17 16 16 16 16 16 15 15 15 15 15 15 15 14 14 14 14 14 14 14 14 14 14 14 14 14
20 19 19 19 19 19 19 19 18 18 18 17 17 17 16 16 16 16 16 16 16 16 15 15 15 15 15 15 14 14 14 14 14 14 14 14 14 14 14 14 14 14 14
19 19 19 19 19 19 18 18 18 18 17 17 17 16 16 16 16 16 16 16 16 15 15 15 15 15 15 14 14 14 14 14 14 14 14 13 13 13 13 13 13 14 13
19 19 18 18 18 18 18 18 17 17 17 17 16 16 16 16 16 16 16 15 15 15 15 15 15 14 14 14 14 14 13 13 13 13 13 13 13 13 13 13 13 13 13
18 18 18 18 18 18 18 17 17 17 16 16 16 16 16 16 16 15 15 15 15 15 15 14 14 14 14 14 14 13 13 13 13 13 13 13 13 13 13 13 13 13 13
Wind_Speed
3 3 3 2 2 3 4 2 3 3 2 2 2 2 2 3 6 8 10 13 13 12 11 10 10 9 8 8 8 9 9 9 9 9 9 10 10 9 9 9 8 9 9
3 3 2 2 2 2 2 2 2 2 2 2 1 2 2 2 5 8 10 11 12 12 11 10 10 9 8 8 8 8 8 9 10 10 10 11 11 10 10 10 10 10 10
4 2 2 2 2 2 2 2 1 1 2 2 2 2 2 2 4 5 9 10 11 12 13 12 11 10 9 9 8 8 8 9 10 11 11 12 12 12 11 11 10 10 10
4 2 2 2 3 3 2 2 1 1 1 1 2 2 2 3 4 6 7 10 10 10 12 13 12 11 10 9 8 8 9 9 10 10 11 12 12 12 12 11 11 10 10
4 3 2 2 3 2 2 2 2 1 1 2 3 3 3 3 3 4 5 7 9 10 11 13 13 12 11 9 8 8 8 9 10 10 11 12 12 12 12 12 12 11 12
4 3 3 3 1 2 2 2 3 2 2 2 2 2 3 3 3 3 4 4 5 8 9 10 11 10 10 9 8 7 7 9 10 10 11 12 12 12 13 13 13 12 12
3 2 1 2 2 2 2 2 2 2 2 2 1 1 1 3 4 3 3 2 3 5 6 9 9 8 8 9 7 7 6 6 7 8 9 11 11 11 12 12 12 12 12
4 4 3 3 3 3 2 2 2 1 2 2 1 1 1 0 1 3 4 4 3 3 4 7 8 7 7 8 7 7 6 6 6 6 6 8 10 10 11 12 12 12 12
4 2 3 2 2 3 3 3 2 2 2 2 2 1 1 0 1 1 3 3 4 3 3 4 7 7 7 7 7 8 7 6 6 6 6 6 7 9 9 10 11 12 12
4 4 3 2 2 2 2 3 3 2 2 2 2 1 1 1 1 1 1 2 4 4 4 3 4 6 8 7 7 8 9 8 7 6 6 6 6 7 7 7 9 10 11
4 4 4 3 2 1 2 1 1 2 2 2 1 1 1 1 2 2 2 2 2 3 4 4 2 3 5 7 7 8 11 9 8 6 5 6 6 7 7 7 7 9 9
4 4 4 3 2 2 2 2 2 3 2 2 2 2 1 1 2 2 2 2 2 2 3 3 4 4 5 6 7 9 11 10 9 7 7 6 6 6 7 7 6 6 8
3 4 4 3 2 2 2 2 3 3 3 2 3 3 2 2 2 2 2 2 2 2 2 2 3 2 5 6 7 10 10 10 9 8 7 7 6 6 6 6 5 5 6
2 4 4 3 3 3 3 2 2 3 2 2 4 3 3 3 2 2 2 2 2 2 2 2 2 2 4 6 8 10 8 10 10 9 8 7 7 7 6 6 5 5 6
3 3 4 4 3 3 3 2 2 3 2 2 3 3 3 3 3 2 2 2 2 2 2 2 1 2 3 5 10 9 7 10 10 10 9 9 8 8 7 7 6 6 6
1 2 3 3 3 3 3 3 3 3 2 2 2 2 2 2 2 2 2 2 2 2 2 1 1 2 2 3 8 8 6 9 10 11 11 11 10 9 8 7 7 7 7
2 3 3 3 3 3 3 3 3 2 2 2 3 2 2 3 3 3 2 2 2 2 3 2 0 2 2 2 3 5 6 7 8 11 12 12 11 10 9 9 8 8 8
3 3 3 3 3 3 2 2 3 2 3 3 3 3 3 3 2 3 3 3 2 2 2 2 1 1 2 3 3 4 4 6 6 10 13 13 12 11 11 10 10 10 9
4 4 3 3 3 2 2 3 3 3 3 2 2 3 3 3 3 2 3 3 3 3 1 2 2 2 2 2 2 3 3 1 4 6 11 13 13 12 12 12 12 11 10
5 4 4 4 4 3 3 2 3 3 3 3 3 2 2 1 2 3 3 2 2 2 2 2 2 2 1 1 1 2 2 2 3 4 5 8 12 13 13 13 13 13 12
6 4 4 4 4 4 3 3 3 4 4 3 2 2 2 2 1 1 2 2 2 2 2 2 2 1 0 1 2 2 3 2 3 3 2 3 5 6 9 12 14 14 14
4 4 4 4 4 4 2 3 3 3 3 3 3 2 3 2 3 3 3 2 2 2 2 2 2 1 1 1 1 2 2 2 2 2 2 3 4 4 6 8 13 17 17
5 4 4 4 3 3 3 2 3 3 2 2 2 2 3 1 1 2 4 5 4 4 4 2 2 2 2 2 2 3 3 3 4 3 2 4 3 4 5 8 15 19 19
4 3 4 3 2 2 3 3 3 4 3 2 2 2 1 1 3 2 3 3 3 4 5 4 3 3 3 2 3 4 5 4 4 3 3 3 4 4 4 4 13 18 19
3 4 3 3 2 2 2 2 2 3 3 3 2 2 2 2 3 3 3 4 4 4 5 6 6 6 5 5 3 2 2 2 4 3 2 3 3 3 3 3 7 14 16
3 3 3 3 3 2 3 3 3 3 3 2 1 1 1 1 2 2 3 4 5 5 4 4 4 5 5 5 5 4 3 3 3 3 2 2 3 2 2 2 4 7 9
Wind_Direction
111 106 102 113 134 138 150 162 146 150 156 153 158 129 100 110 121 131 146 157 158 161 166 171 178 185 191 196 200 203 206 211 215 213 211 210 209 206 205 205 204 204 204
109 115 122 122 142 143 138 144 146 150 143 133 124 109 107 118 127 140 153 161 167 169 174 179 181 184 191 196 202 208 213 216 218 217 216 217 216 214 211 210 211 212 210
127 140 146 153 160 173 155 138 129 163 156 151 147 148 137 154 149 151 155 164 174 182 184 185 188 194 199 205 211 215 215 218 219 220 221 220 219 218 216 211 214 217 215
147 161 149 166 183 177 151 147 167 179 121 142 143 179 167 169 177 174 170 173 178 181 186 190 192 197 203 209 217 220 221 222 220 220 223 221 218 214 212 211 216 216 215
149 163 152 162 194 167 167 167 133 139 165 177 180 190 190 192 188 182 176 177 181 175 176 187 194 199 203 210 218 225 229 226 222 223 224 220 216 211 210 213 217 220 217
160 171 170 173 176 135 158 141 153 178 200 221 216 185 204 193 186 184 189 174 172 177 173 173 184 198 204 208 217 229 236 231 227 227 227 222 218 214 213 215 219 222 220
161 178 157 156 174 163 162 158 174 188 195 192 199 203 234 215 190 176 181 178 175 166 166 161 173 180 187 202 211 222 227 225 225 225 228 222 218 217 215 216 219 223 222
179 187 168 195 190 158 169 180 168 227 226 169 192 177 213 250 254 187 169 181 179 161 172 171 170 175 173 173 193 210 216 218 219 221 223 224 220 219 220 219 222 219 219
186 186 182 209 181 177 176 187 185 214 236 230 219 209 234 187 256 209 187 171 165 175 191 164 172 176 176 167 177 197 207 213 218 221 221 223 222 219 220 219 219 218 217
190 186 188 195 205 195 167 195 173 232 230 246 223 223 217 131 212 256 257 183 184 191 193 197 173 171 172 171 175 181 193 203 212 220 226 224 222 219 218 220 218 218 219
194 199 185 186 200 210 179 216 164 231 250 272 272 233 223 199 221 228 239 228 229 197 183 185 176 170 171 171 173 181 184 193 201 210 219 223 221 214 212 218 223 224 223
196 195 181 183 189 203 197 216 216 225 236 266 289 294 265 227 229 245 255 241 237 223 189 174 185 182 178 170 175 172 179 188 196 205 213 215 214 211 210 213 220 223 220
193 185 185 178 188 197 206 211 211 239 239 246 256 272 283 261 238 250 268 274 267 250 208 186 196 184 179 159 154 166 177 184 191 197 205 211 211 207 206 211 218 221 217
183 170 171 178 192 205 212 197 230 228 228 241 255 261 282 282 269 239 237 252 269 259 221 215 194 171 165 156 159 167 175 186 191 196 201 205 207 205 209 212 218 223 221
192 166 172 182 192 194 215 213 219 246 230 233 262 257 257 279 282 282 263 236 232 262 259 212 182 171 161 148 161 180 177 186 192 198 203 204 206 207 212 215 220 223 216
198 171 176 185 195 201 210 220 220 224 227 237 249 273 273 278 293 288 281 264 242 248 269 236 214 175 170 169 175 185 179 180 194 202 205 206 205 204 208 214 216 215 209
194 195 200 201 202 210 213 218 226 228 218 236 258 261 265 280 298 301 289 273 251 234 260 280 219 145 170 185 174 188 193 187 196 205 205 206 206 204 204 208 209 208 206
201 201 203 206 217 211 210 214 238 244 233 231 247 259 268 273 276 290 302 292 276 251 234 262 260 218 210 200 197 207 216 214 197 199 200 203 205 204 203 204 206 206 206
198 195 197 209 227 222 215 218 228 244 251 248 248 252 265 280 284 289 285 285 291 289 242 236 250 243 223 205 197 226 234 236 228 200 199 201 205 205 204 204 204 205 205
192 194 197 206 215 215 221 234 243 239 247 250 249 248 251 257 283 285 285 295 290 293 285 242 245 242 214 185 189 232 243 229 235 220 192 195 202 207 209 207 206 206 204
199 192 197 207 208 217 227 225 239 238 232 235 237 232 222 180 140 278 286 305 292 272 273 262 257 267 263 184 232 242 247 248 232 222 199 201 189 196 204 212 212 209 206
196 195 202 205 216 229 223 211 230 255 236 226 230 229 218 195 194 211 231 257 270 264 265 270 277 273 289 282 264 269 265 262 265 217 214 239 206 209 203 199 205 204 205
196 202 206 201 196 199 218 237 242 242 237 237 250 261 264 253 217 238 239 238 243 243 232 237 265 267 262 265 267 267 259 254 258 238 229 253 237 230 216 211 201 200 202
194 201 206 197 185 210 215 229 257 223 225 224 240 249 248 288 306 293 278 267 252 242 225 221 234 254 261 256 250 257 262 254 256 241 222 249 245 240 236 196 199 198 201
199 201 190 186 193 217 228 227 247 238 222 230 235 254 231 244 288 277 266 267 263 262 245 228 222 229 239 249 251 267 276 266 269 250 225 242 252 252 238 212 195 199 203
205 203 195 184 185 209 227 224 241 251 241 231 200 211 227 238 295 271 254 263 266 273 276 251 235 231 231 227 220 220 234 252 273 270 227 235 252 251 260 233 192 193 206
Height
1532 1533 1534 1535 1537 1538 1539 1541 1542 1543 1544 1545 1546 1547 1548 1549 1549 1549 1549 1550 1551 1551 1552 1552 1552 1553 1553 1554 1554 1555 1555 1556 1557 1557 1558 1559 1560 1561 1562 1563 1564 1566 1567
1532 1533 1535 1536 1537 1539 1540 1541 1542 1543 1544 1545 1546 1547 1547 1548 1549 1549 1549 1550 1550 1551 1551 1552 1552 1552 1552 1552 1553 1553 1554 1554 1555 1555 1556 1557 1558 1559 1560 1561 1562 1564 1565
1533 1534 1535 1536 1538 1539 1540 1541 1542 1543 1544 1545 1546 1546 1547 1547 1548 1549 1549 1549 1549 1550 1550 1550 1551 1551 1551 1551 1551 1551 1552 1552 1553 1553 1554 1555 1555 1556 1557 1558 1560 1561 1562
1533 1535 1536 1537 1538 1539 1540 1541 1542 1543 1544 1544 1545 1546 1546 1547 1547 1548 1548 1548 1548 1549 1549 1549 1549 1549 1549 1549 1549 1549 1550 1550 1550 1551 1551 1552 1553 1554 1555 1556 1557 1558 1559
1534 1535 1536 1537 1538 1539 1540 1541 1541 1542 1543 1544 1544 1545 1545 1546 1547 1547 1547 1547 1548 1548 1548 1548 1548 1548 1548 1548 1548 1548 1548 1547 1548 1548 1548 1549 1550 1551 1552 1553 1554 1556 1557
1534 1535 1536 1537 1538 1539 1540 1541 1541 1542 1542 1543 1544 1545 1545 1545 1546 1546 1546 1547 1547 1547 1547 1546 1546 1546 1546 1546 1546 1546 1545 1545 1545 1545 1545 1546 1547 1548 1549 1550 1551 1553 1554
1534 1535 1536 1537 1538 1539 1539 1540 1540 1541 1542 1543 1544 1544 1544 1544 1545 1545 1545 1546 1546 1546 1546 1545 1545 1545 1544 1544 1544 1544 1543 1543 1542 1543 1542 1543 1544 1545 1546 1547 1548 1549 1551
1533 1535 1536 1537 1538 1538 1539 1540 1540 1541 1542 1543 1543 1543 1544 1545 1544 1544 1544 1544 1545 1545 1545 1544 1544 1544 1543 1542 1542 1542 1541 1541 1540 1540 1540 1540 1541 1542 1543 1544 1545 1546 1547
1533 1534 1535 1536 1537 1538 1538 1539 1540 1541 1541 1542 1543 1543 1543 1543 1543 1544 1543 1543 1543 1543 1543 1543 1542 1542 1541 1540 1540 1540 1539 1539 1539 1538 1538 1538 1538 1539 1540 1541 1542 1543 1544
1532 1533 1534 1535 1536 1537 1538 1539 1539 1540 1540 1541 1541 1542 1542 1542 1542 1542 1543 1543 1542 1541 1541 1541 1541 1540 1540 1539 1538 1538 1537 1537 1537 1536 1536 1536 1536 1536 1537 1538 1539 1540 1541
1532 1533 1534 1534 1535 1536 1537 1538 1538 1539 1539 1540 1540 1540 1541 1541 1541 1541 1541 1541 1541 1540 1539 1539 1539 1539 1538 1537 1536 1536 1535 1535 1535 1534 1534 1533 1533 1534 1534 1535 1536 1537 1537
1531 1532 1532 1533 1534 1535 1536 1537 1537 1538 1538 1538 1539 1539 1539 1539 1539 1539 1539 1538 1538 1538 1538 1537 1537 1536 1536 1535 1534 1534 1534 1533 1533 1532 1531 1531 1531 1532 1532 1533 1533 1534 1534
1529 1530 1531 1532 1533 1534 1535 1535 1536 1536 1537 1537 1537 1537 1537 1538 1538 1537 1537 1537 1536 1536 1536 1535 1535 1535 1534 1533 1533 1532 1532 1531 1530 1530 1529 1529 1529 1529 1530 1530 1531 1531 1531
1528 1529 1530 1531 1532 1532 1533 1534 1535 1535 1535 1535 1535 1535 1535 1535 1536 1535 1535 1535 1534 1534 1533 1533 1533 1533 1532 1531 1531 1530 1529 1529 1528 1528 1528 1527 1527 1527 1527 1528 1528 1528 1529
1527 1528 1528 1529 1530 1531 1532 1532 1533 1533 1533 1533 1533 1533 1533 1533 1533 1533 1533 1533 1533 1531 1531 1531 1530 1530 1530 1529 1529 1528 1528 1527 1526 1526 1525 1525 1525 1525 1525 1525 1525 1526 1526
1525 1526 1527 1528 1528 1529 1530 1530 1531 1531 1531 1531 1531 1531 1531 1531 1531 1531 1530 1530 1530 1530 1529 1528 1528 1528 1528 1527 1526 1526 1525 1525 1524 1523 1523 1522 1522 1522 1522 1522 1523 1523 1523
1523 1524 1525 1526 1526 1527 1528 1528 1529 1529 1529 1529 1529 1529 1529 1528 1528 1528 1528 1527 1527 1527 1526 1525 1526 1525 1525 1524 1524 1523 1523 1522 1521 1521 1520 1520 1519 1519 1519 1519 1520 1520 1520
1520 1522 1523 1524 1525 1525 1525 1526 1526 1527 1527 1527 1526 1526 1526 1526 1525 1525 1525 1524 1524 1524 1523 1522 1522 1522 1522 1521 1521 1520 1520 1519 1519 1518 1518 1517 1517 1516 1516 1516 1516 1517 1517
1518 1520 1521 1521 1522 1523 1523 1523 1524 1524 1524 1524 1524 1523 1523 1523 1522 1522 1522 1521 1521 1521 1520 1520 1519 1519 1519 1518 1518 1518 1517 1517 1516 1516 1515 1515 1514 1514 1513 1513 1514 1514 1515
1515 1516 1517 1518 1519 1520 1520 1520 1521 1521 1521 1521 1520 1520 1519 1519 1519 1519 1519 1518 1518 1517 1517 1517 1516 1516 1516 1515 1515 1515 1514 1514 1513 1513 1513 1512 1511 1511 1511 1511 1511 1511 1511
1512 1513 1514 1515 1516 1516 1517 1517 1517 1518 1517 1517 1517 1517 1516 1516 1515 1516 1516 1515 1515 1514 1514 1514 1513 1513 1513 1512 1512 1512 1511 1511 1511 1510 1510 1509 1509 1508 1507 1507 1507 1508 1508
1510 1511 1511 1512 1512 1513 1513 1514 1514 1514 1514 1514 1513 1513 1513 1513 1512 1512 1512 1512 1512 1512 1511 1511 1510 1510 1509 1509 1509 1509 1508 1508 1507 1508 1507 1506 1506 1505 1504 1504 1504 1505 1505
1506 1507 1508 1508 1509 1509 1510 1510 1510 1510 1510 1511 1511 1511 1510 1510 1509 1509 1509 1509 1509 1509 1509 1508 1507 1506 1506 1506 1505 1505 1505 1504 1503 1503 1504 1502 1502 1502 1502 1501 1501 1501 1502
1502 1503 1504 1505 1505 1506 1506 1507 1507 1507 1507 1507 1507 1507 1507 1506 1506 1506 1505 1505 1505 1505 1505 1504 1503 1503 1503 1502 1502 1502 1501 1500 1500 1500 1500 1499 1498 1498 1498 1498 1498 1498 1498
1499 1500 1501 1502 1502 1502 1503 1503 1504 1504 1503 1503 1504 1504 1504 1504 1503 1502 1502 1501 1501 1501 1501 1500 1500 1499 1499 1499 1499 1498 1497 1496 1495 1495 1495 1495 1495 1495 1494 1494 1494 1495 1495
1496 1497 1498 1498 1499 1499 1500 1500 1501 1501 1500 1500 1500 1500 1501 1500 1500 1499 1499 1498 1497 1497 1497 1496 1496 1495 1495 1495 1495 1494 1493 1493 1492 1491 1491 1491 1491 1491 1491 1490 1490 1491 1491